Change the Weather History Date:

Tuesday, February 26, 2013

  Actual Average Record
Temperature  
Mean Temperature 38 °F -  
Max Temperature 42 °F 42 °F 59 °F (1998)
Min Temperature 34 °F 28 °F 12 °F (2014)
Degree Days  
Heating Degree Days 27    
Moisture  
Dew Point 31 °F    
Average Humidity 79    
Maximum Humidity 100    
Minimum Humidity 59    
Precipitation  
Precipitation 0.05 in - - ()
Sea Level Pressure  
Sea Level Pressure 29.68 in    
Wind  
Wind Speed 10 mph (East)    
Max Wind Speed 20 mph    
Max Gust Speed 25 mph    
Visibility 9 miles    
Events Rain    
Averages and records for this station are not official NWS values.
T = Trace of Precipitation, MM = Missing Value Source: NWS Daily Summary

Daily Weather History Graph

Daily Weather History Graph

Search for Another Location

Airport or City:

Trip Planner

Search our weather history database for the weather conditions in past years. The results will help you decide how hot, cold, wet, or windy it might be!

Date:

Astronomy

Feb. 26, 2013 Rise Set
Actual Time 7:09 AM EST 6:21 PM EST
Civil Twilight 6:42 AM EST 6:48 PM EST
Nautical Twilight 6:11 AM EST 7:20 PM EST
Astronomical Twilight 5:40 AM EST 7:51 PM EST
Moon 7:36 PM EST (2/26) 7:11 AM EST (2/26)
Length of Visible Light 12h 06m
Length of Day
11h 11m
Full, 99% of the Moon is Illuminated
Feb 26
Full
Mar 4
Last Quarter
Mar 11
New
Mar 19
First Quarter
Mar 27
Full

Hourly Weather History & Observations

Time (EST) Temp. Windchill Dew Point Humidity Pressure Visibility Wind Dir Wind Speed Gust Speed Precip Events Conditions
12:15 AM 34.5 °F 28.6 °F 23.4 °F 64% 29.96 in 10.0 mi ENE 6.9 mph - N/A   Clear
12:35 AM 34.3 °F 28.4 °F 23.5 °F 65% 29.96 in 10.0 mi ENE 6.9 mph - N/A   Clear
12:55 AM 34.5 °F 29.4 °F 23.0 °F 63% 29.96 in 10.0 mi ENE 5.8 mph - N/A   Clear
1:15 AM 34.2 °F 27.5 °F 23.4 °F 65% 29.96 in 10.0 mi ENE 8.1 mph - N/A   Clear
1:35 AM 34.5 °F 29.4 °F 23.0 °F 63% 29.95 in 10.0 mi ENE 5.8 mph - N/A   Clear
1:55 AM 34.3 °F 28.4 °F 23.0 °F 63% 29.94 in 10.0 mi ENE 6.9 mph - N/A   Clear
2:15 AM 34.2 °F 26.2 °F 23.0 °F 64% 29.91 in 10.0 mi ENE 10.4 mph - N/A   Clear
2:35 AM 34.7 °F 27.5 °F 23.0 °F 62% 29.90 in 10.0 mi ENE 9.2 mph - N/A   Clear
2:55 AM 34.7 °F 28.1 °F 23.0 °F 62% 29.89 in 10.0 mi East 8.1 mph - N/A   Clear
3:15 AM 34.7 °F 28.8 °F 23.0 °F 62% 29.86 in 10.0 mi ENE 6.9 mph - N/A   Clear
3:35 AM 34.3 °F 26.5 °F 23.0 °F 63% 29.84 in 10.0 mi ENE 10.4 mph - N/A   Clear
3:55 AM 34.7 °F 28.1 °F 23.0 °F 62% 29.84 in 10.0 mi ENE 8.1 mph - N/A   Clear
4:15 AM 34.7 °F 26.9 °F 23.0 °F 62% 29.84 in 10.0 mi East 10.4 mph - N/A   Clear
4:35 AM 34.3 °F 27.0 °F 23.4 °F 64% 29.84 in 10.0 mi East 9.2 mph - N/A   Clear
4:55 AM 34.3 °F 26.5 °F 23.2 °F 64% 29.84 in 10.0 mi East 10.4 mph - N/A   Clear
5:15 AM 34.3 °F 25.5 °F 23.2 °F 64% 29.81 in 10.0 mi ENE 12.7 mph 16.1 mph N/A   Scattered Clouds
5:35 AM 34.7 °F 25.9 °F 23.2 °F 63% 29.80 in 10.0 mi ENE 12.7 mph 17.3 mph N/A   Mostly Cloudy
5:55 AM 35.6 °F 27.1 °F 23.0 °F 60% 29.79 in 10.0 mi ENE 12.7 mph - N/A   Overcast
6:15 AM 36.0 °F 28.0 °F 23.0 °F 59% 29.78 in 10.0 mi ENE 11.5 mph 17.3 mph N/A   Overcast
6:35 AM 36.5 °F 27.8 °F 23.4 °F 59% 29.78 in 10.0 mi East 13.8 mph - N/A   Overcast
6:55 AM 36.5 °F 27.4 °F 23.4 °F 59% 29.76 in 10.0 mi East 15.0 mph 23.0 mph N/A   Overcast
7:15 AM 36.5 °F 27.4 °F 23.5 °F 59% 29.76 in 10.0 mi East 15.0 mph 18.4 mph N/A   Overcast
7:20 AM 35.6 °F 25.9 °F 24.8 °F 65% 29.75 in 7.0 mi East 16.1 mph 20.7 mph N/A Rain Light Rain
7:55 AM 35.6 °F 26.6 °F 26.6 °F 70% 29.75 in 5.0 mi East 13.8 mph 21.9 mph N/A Rain Light Rain
10:50 AM 37.4 °F 27.2 °F 33.8 °F 87% 29.64 in 7.0 mi East 19.6 mph 24.2 mph N/A Rain Rain
11:47 AM 37.4 °F 27.8 °F 35.6 °F 93% 29.60 in 5.0 mi ENE 17.3 mph 25.3 mph N/A Rain Light Rain
12:47 PM 37.4 °F 27.8 °F 35.6 °F 93% 29.58 in 7.0 mi East 17.3 mph 23.0 mph N/A   Overcast
1:25 PM 37.4 °F 29.3 °F 37.4 °F 100% 29.56 in 3.0 mi East 12.7 mph - N/A Rain Rain
1:50 PM 37.4 °F 30.3 °F 37.4 °F 100% 29.53 in 3.0 mi ENE 10.4 mph 17.3 mph N/A Rain Light Rain
2:55 PM 39.2 °F 32.5 °F 39.2 °F 100% 29.50 in 5.0 mi East 10.4 mph - N/A Rain Light Rain
3:50 PM 42.8 °F 35.8 °F 41.0 °F 93% 29.47 in 10.0 mi East 13.8 mph 20.7 mph N/A   Overcast
4:50 PM 42.8 °F 36.2 °F 41.0 °F 93% 29.46 in 5.0 mi East 12.7 mph 19.6 mph N/A Rain Light Rain
5:50 PM 42.8 °F 35.8 °F 41.0 °F 93% 29.45 in 7.0 mi East 13.8 mph 20.7 mph N/A   Overcast
6:53 PM 41.0 °F 33.1 °F 39.2 °F 93% 29.47 in 5.0 mi East 15.0 mph 21.9 mph N/A Rain Light Rain
8:15 PM 40.5 °F 34.6 °F 40.3 °F 99% 29.47 in 4.0 mi East 9.2 mph - 0.02 in Rain Rain
8:35 PM 40.6 °F 34.3 °F 40.5 °F 99% 29.49 in 5.0 mi SSE 10.4 mph - 0.04 in Rain Light Rain
8:55 PM 41.9 °F 36.9 °F 41.2 °F 97% 29.47 in 10.0 mi SE 8.1 mph - 0.04 in Rain Rain
9:15 PM 41.9 °F 37.5 °F 41.0 °F 97% 29.47 in 10.0 mi SE 6.9 mph - 0.01 in Rain Light Rain
9:35 PM 41.5 °F 37.1 °F 41.0 °F 98% 29.48 in 10.0 mi SSE 6.9 mph - 0.01 in   Overcast
9:55 PM 42.1 °F 37.7 °F 41.2 °F 97% 29.48 in 10.0 mi South 6.9 mph - 0.01 in Rain Light Rain
10:15 PM 42.1 °F 37.1 °F 41.4 °F 97% 29.48 in 10.0 mi South 8.1 mph - N/A   Overcast
10:35 PM 42.8 °F 37.5 °F 41.9 °F 97% 29.48 in 10.0 mi South 9.2 mph - N/A   Overcast
10:55 PM 42.8 °F - 41.9 °F 97% 29.48 in 10.0 mi North - - N/A   Overcast
11:15 PM 42.8 °F 36.2 °F 41.4 °F 95% 29.49 in 10.0 mi SSW 12.7 mph - N/A   Overcast
11:35 PM 42.8 °F 36.2 °F 41.2 °F 94% 29.49 in 10.0 mi SSW 12.7 mph - N/A   Overcast
11:55 PM 42.6 °F 36.3 °F 41.0 °F 94% 29.49 in 10.0 mi SSW 11.5 mph - N/A   Overcast